Theta_e
327 327 328 330 332 332 330 328 329 329 332 332 331 332 332 331 330 330 330 330 329 329 330 329 328 328 328 329 327 328 329 328 327 325 323 324 323 321 322 320 321 321 321 317 319 318 317 315 317 322 322 320 321 322 323 325 325 324 323 323 323 323 322
325 325 327 329 330 332 330 329 329 330 330 331 332 331 331 332 332 330 330 330 330 329 331 331 329 330 329 328 327 327 327 327 326 326 325 324 322 321 321 317 320 319 318 319 320 317 316 316 316 318 318 320 320 320 320 321 323 325 324 323 325 323 321
326 325 327 327 328 329 328 328 328 328 329 329 330 332 331 332 332 331 331 330 330 331 331 331 330 330 328 328 328 327 327 326 324 326 326 324 323 322 322 321 319 316 317 316 315 315 317 315 316 316 318 318 316 318 320 322 325 324 324 324 323 322 319
326 326 326 326 327 327 327 327 326 327 327 328 328 331 331 331 331 331 331 331 331 332 332 330 329 329 328 329 328 328 328 327 324 324 323 323 323 322 321 323 321 320 318 315 316 316 315 313 316 317 317 317 316 315 320 324 324 324 324 322 322 319 318
326 327 326 327 328 327 326 326 326 325 325 327 328 330 330 331 331 330 330 330 331 330 330 329 329 329 329 330 329 328 327 326 325 325 323 322 322 322 321 321 322 321 316 318 319 318 317 316 317 316 315 315 317 316 321 320 323 323 323 322 320 319 318
326 327 326 326 327 327 326 326 325 325 325 326 328 329 329 330 330 329 328 328 328 329 328 329 329 330 330 329 328 327 326 326 325 324 323 322 323 323 322 321 322 321 319 318 321 319 318 318 317 315 314 316 312 314 317 319 317 321 322 320 319 318 317
326 326 326 327 327 328 327 326 326 326 326 327 328 329 329 329 329 329 329 329 328 328 328 329 330 330 331 330 328 327 326 326 325 325 324 322 322 322 322 321 321 321 319 321 321 320 318 318 316 316 315 313 314 315 316 316 318 318 319 318 318 318 316
326 325 326 327 328 327 327 327 326 326 326 327 328 328 328 328 328 329 328 328 328 328 327 328 330 329 329 330 329 328 327 326 326 325 323 324 324 323 321 322 321 321 320 321 322 321 321 320 319 318 316 313 311 312 312 315 317 315 316 314 317 316 315
326 326 324 325 326 327 326 326 324 325 327 326 327 327 327 328 328 327 327 327 328 327 327 328 328 328 327 328 326 327 326 329 326 325 324 324 324 322 321 320 322 322 322 322 322 322 321 321 320 319 318 316 313 310 310 311 312 313 316 310 312 315 314
325 325 325 324 323 323 324 325 326 326 326 327 327 326 326 326 326 326 326 326 326 326 326 327 326 325 325 326 326 325 326 325 326 325 324 325 323 321 321 322 323 322 321 321 321 322 322 321 320 319 319 317 316 313 309 308 309 308 311 310 308 310 314
326 326 324 324 323 323 323 325 325 324 325 327 328 327 324 324 325 329 324 324 325 325 325 325 325 325 324 324 326 326 326 326 324 322 323 324 323 322 320 321 320 321 319 320 322 321 322 321 319 319 317 315 315 314 311 310 309 308 307 309 305 306 310
327 326 325 325 324 325 325 325 325 325 325 324 325 322 322 323 323 323 324 323 323 324 324 324 323 324 324 323 322 323 323 326 325 323 322 324 322 323 322 321 319 319 319 320 319 320 320 321 321 319 316 316 315 314 311 309 306 308 308 307 306 309 309
325 326 326 324 324 324 326 325 325 324 324 324 323 323 322 321 321 322 323 323 322 322 323 322 322 323 323 323 322 323 323 325 325 325 323 322 327 323 322 321 319 321 319 320 320 320 320 320 320 320 319 317 315 314 312 311 308 307 307 306 305 307 310
324 325 325 324 323 325 326 325 325 325 324 323 323 323 322 321 322 323 323 322 321 321 322 320 321 322 322 321 321 322 323 324 325 323 323 321 324 322 321 321 320 320 319 321 319 321 321 320 320 320 320 318 316 314 312 310 307 303 304 304 305 305 307
324 324 323 323 324 324 325 325 325 324 323 323 323 322 322 322 321 322 321 320 320 321 321 321 320 321 321 320 320 323 323 323 323 322 322 323 321 324 321 321 320 319 320 322 319 322 321 320 319 319 317 318 316 314 312 310 306 304 302 302 301 302 303
323 324 323 323 324 324 325 325 325 323 323 322 323 322 322 321 321 320 320 320 320 320 321 320 319 320 320 320 319 319 322 322 322 322 322 323 323 322 320 320 320 319 320 319 318 319 318 318 316 317 316 316 316 314 313 310 306 303 302 301 301 301 302
324 324 323 323 323 323 324 324 324 323 323 322 322 322 322 321 320 319 320 320 320 320 319 319 319 320 319 318 319 319 320 320 322 322 322 323 323 322 321 319 319 318 318 317 316 316 315 314 312 313 314 314 314 313 311 309 309 304 301 302 300 302 301
323 322 322 322 323 323 324 324 323 323 323 322 322 322 322 321 319 319 320 320 320 319 319 319 317 316 318 318 319 319 320 320 321 321 322 323 326 322 320 320 318 317 316 317 317 315 312 311 312 311 313 312 312 311 310 307 306 306 304 303 302 301 301
321 321 322 322 322 323 324 323 322 323 323 322 321 321 321 320 319 318 319 320 319 318 317 317 317 317 317 316 317 318 319 320 321 322 322 323 323 322 321 318 318 317 317 316 314 313 312 310 309 309 311 311 311 310 307 305 305 305 305 303 302 301 300
321 321 322 322 323 323 323 323 322 322 322 322 320 320 321 319 318 317 316 316 314 313 313 312 313 314 316 316 318 319 319 320 320 321 322 322 320 319 318 319 317 316 315 314 314 314 313 312 313 310 309 310 310 309 307 306 305 304 303 302 301 301 301
321 321 322 322 323 323 322 321 321 320 321 320 320 320 318 315 314 314 312 311 309 309 309 308 309 312 314 316 317 318 318 317 318 319 320 320 320 319 318 318 316 315 315 314 314 313 314 314 312 311 310 311 310 309 308 307 305 304 302 302 301 301 300
320 320 322 322 322 322 321 319 319 319 319 319 319 317 315 314 312 311 310 309 307 307 306 304 304 304 311 315 315 316 317 317 317 317 318 318 318 317 314 312 312 312 315 315 311 312 314 315 313 312 311 311 311 310 309 309 307 306 304 306 305 304 303
320 320 320 320 320 320 319 318 318 317 317 316 315 315 314 313 311 310 308 307 306 305 304 303 301 299 304 314 315 315 315 316 317 316 316 312 311 311 312 312 315 314 311 309 304 300 300 304 309 313 311 312 311 311 310 309 308 307 307 306 305 305 305
320 320 319 318 318 318 316 317 317 317 316 315 314 313 312 311 310 309 307 306 304 303 302 300 295 294 298 307 314 314 314 313 314 315 313 310 309 311 313 314 315 318 314 311 305 298 296 297 298 299 300 305 311 311 309 308 307 305 304 305 305 302 303
318 318 318 316 317 317 318 318 317 315 314 313 313 312 311 310 309 308 307 305 304 302 300 297 293 294 297 302 308 315 315 315 314 313 312 313 314 315 315 315 315 316 316 314 311 308 305 298 295 296 296 297 296 296 301 307 305 303 303 303 304 305 302
316 315 316 316 317 317 318 317 316 314 312 312 311 310 309 308 307 307 306 305 303 302 300 295 293 295 298 302 304 311 315 315 314 314 316 316 315 315 314 314 313 312 313 318 315 312 313 312 303 301 303 303 302 298 295 295 299 306 304 303 305 304 304
316 316 316 316 317 316 316 315 314 313 312 311 309 308 307 307 306 305 304 303 301 300 299 295 293 294 299 302 303 308 316 316 316 316 316 316 315 314 314 313 311 309 306 306 307 309 311 312 310 310 310 310 310 307 300 295 294 295 301 306 304 306 304
314 315 316 317 316 315 315 314 314 312 311 310 309 307 306 305 304 304 303 302 302 300 298 293 293 294 298 303 303 307 317 317 316 316 316 316 316 316 315 315 311 307 306 304 301 300 309 310 311 310 309 309 308 308 308 310 310 307 305 305 307 307 306
314 313 313 315 315 314 313 312 311 311 309 308 307 306 304 303 302 301 301 302 302 300 299 293 293 295 298 304 306 314 316 316 315 314 314 315 316 316 313 311 308 306 304 303 299 294 300 310 314 313 312 311 310 308 309 307 299 299 304 306 308 308 309
313 313 313 313 313 312 311 310 309 309 306 305 303 302 302 301 302 301 301 301 300 299 298 295 293 295 298 304 307 315 314 312 310 308 306 306 307 308 309 308 306 305 303 301 294 294 299 307 314 313 312 311 310 309 308 309 302 299 298 297 295 295 295
311 311 312 311 311 311 310 310 308 308 305 304 302 301 301 300 300 299 298 298 299 298 296 295 293 295 297 301 308 314 311 308 306 303 301 301 301 301 303 306 306 301 300 298 291 292 295 306 309 309 310 309 308 308 306 305 304 304 300 300 300 299 296
309 309 309 309 310 309 308 307 307 307 306 305 303 303 302 300 299 298 298 298 301 297 295 295 293 294 295 299 308 312 310 307 304 302 301 299 299 299 299 298 298 298 298 293 290 291 292 301 305 305 306 305 303 302 302 300 300 300 301 303 305 306 306
308 308 308 308 308 308 308 308 307 306 305 304 302 302 301 300 298 297 297 297 297 297 296 295 294 293 294 296 301 310 309 306 303 302 301 300 299 298 298 297 296 290 290 290 290 290 290 292 301 302 302 300 299 299 299 297 297 297 298 299 302 303 303
305 307 308 308 308 308 308 307 306 305 303 303 302 301 299 298 297 296 297 297 298 298 298 296 294 292 293 294 296 302 308 307 305 302 299 298 298 297 297 296 296 292 290 290 290 289 289 287 290 298 299 299 297 294 293 297 297 298 299 299 300 301 301
303 303 304 306 306 306 307 308 306 305 304 302 300 298 297 296 296 296 296 297 296 296 298 298 296 293 292 293 293 296 301 301 301 300 298 298 297 297 296 295 295 291 290 290 290 290 289 287 288 296 290 288 288 288 292 296 296 298 299 299 299 299 299
299 300 300 301 302 302 303 304 305 305 303 300 298 297 297 297 296 296 296 296 295 295 296 296 294 294 292 292 292 292 293 296 295 300 298 297 296 295 295 294 295 292 290 290 290 291 292 292 293 290 286 287 287 289 294 297 296 296 296 296 296 296 295
298 297 298 298 298 298 299 301 301 303 303 300 297 297 296 296 296 295 295 295 294 294 294 294 293 292 293 291 291 291 291 291 293 295 295 294 293 293 292 292 292 290 291 291 292 292 291 292 291 289 290 290 292 294 296 295 295 294 292 292 293 293 292
Wind_Speed
6 6 4 3 4 3 3 4 4 4 4 5 5 5 6 6 5 4 5 5 5 5 4 5 5 4 5 6 6 5 7 7 7 8 6 7 9 5 1 2 3 5 7 4 5 5 6 6 3 2 1 1 0 1 1 0 1 2 1 1 2 2 2
4 4 4 4 5 4 3 2 4 5 4 5 5 6 5 5 5 5 5 6 6 5 4 4 4 5 6 7 6 6 6 6 5 5 7 7 6 6 4 3 5 5 3 3 6 3 4 5 3 3 2 1 1 2 2 0 2 3 3 2 2 2 2
4 4 5 6 6 5 5 5 4 5 5 5 4 4 5 5 5 5 5 6 5 5 4 4 4 5 5 5 7 6 6 6 3 5 8 6 5 4 4 6 5 3 4 3 2 4 4 2 5 7 4 5 4 2 0 0 3 4 3 3 3 3 2
6 6 6 6 6 6 7 6 6 7 6 6 5 5 6 5 5 5 4 4 4 4 4 4 5 6 6 6 5 5 5 6 5 5 3 4 4 4 3 6 8 9 8 5 7 5 5 4 5 4 4 3 3 3 2 2 4 4 4 3 4 3 2
8 7 9 9 9 8 8 8 6 5 5 5 6 5 6 6 5 5 3 4 4 4 5 5 5 5 5 5 5 6 5 4 4 5 4 5 4 5 3 4 6 5 3 5 6 6 7 6 8 7 6 3 2 1 2 2 3 5 4 4 3 3 3
6 7 8 8 8 8 7 7 6 6 5 5 5 6 5 7 6 6 5 5 5 4 4 4 4 5 5 5 5 5 5 5 6 5 5 5 6 6 5 3 5 4 5 3 6 6 4 6 7 8 3 3 3 2 2 3 1 1 2 3 4 3 4
6 6 6 8 8 7 7 7 7 6 6 6 7 6 6 6 5 6 6 5 5 4 4 5 5 5 5 6 5 6 5 5 4 5 5 4 3 4 5 5 4 5 3 4 6 7 7 8 7 8 7 2 2 4 2 1 2 3 1 3 3 3 3
0 2 5 6 7 6 6 6 5 4 6 6 7 6 6 6 6 6 5 5 5 4 4 5 5 5 5 5 5 6 5 5 5 5 4 5 5 4 4 5 5 3 4 4 6 6 7 8 9 8 9 8 3 2 3 1 3 3 2 1 2 2 3
1 3 4 4 2 3 4 3 1 1 5 6 5 6 6 7 7 7 6 6 6 5 5 5 5 5 5 6 5 4 5 3 5 4 4 4 4 4 4 3 3 3 3 4 5 6 6 7 7 7 7 8 11 6 2 3 3 3 4 3 1 1 3
5 5 5 2 1 4 6 3 4 4 3 6 6 6 7 7 8 7 6 6 6 6 5 5 5 4 4 5 5 4 4 3 4 4 3 4 3 3 2 3 4 4 3 3 3 4 5 5 6 7 7 9 8 9 7 6 5 4 3 3 3 2 3
11 8 3 5 6 5 2 1 2 2 5 3 6 5 6 6 6 6 6 5 6 6 6 5 5 4 4 5 5 5 4 4 4 3 3 4 4 3 3 2 2 3 2 3 4 3 5 6 6 6 6 2 4 8 6 8 6 3 3 1 2 3 3
7 5 6 7 9 9 6 3 1 3 3 4 6 6 6 5 6 6 6 5 5 6 5 5 5 5 4 4 4 5 3 4 5 4 3 3 3 4 4 3 2 3 3 3 3 2 3 5 6 6 5 5 5 4 4 3 4 3 3 5 2 3 4
6 6 8 8 7 7 6 4 2 4 9 5 6 7 7 6 6 6 6 6 5 5 6 5 5 5 5 5 4 5 4 4 5 5 3 3 4 4 4 4 3 4 3 3 3 3 4 4 5 6 4 5 5 5 5 5 4 3 1 4 2 3 5
7 6 6 6 8 7 7 5 7 9 7 6 7 7 7 6 6 6 6 6 6 5 5 5 4 5 5 5 4 5 4 5 5 4 4 3 2 3 4 4 4 3 3 3 4 4 5 5 4 6 6 5 6 5 6 6 5 3 1 1 3 3 4
8 6 6 5 7 6 8 7 6 8 7 6 7 8 7 6 5 6 5 5 5 5 5 5 4 5 6 5 4 4 5 5 5 4 4 4 3 3 4 4 4 3 2 4 3 3 3 3 4 5 6 5 6 6 4 5 4 5 4 1 2 3 3
8 7 8 7 8 7 7 6 7 9 7 7 7 8 8 7 6 6 5 5 5 5 5 5 5 5 5 5 5 4 5 5 6 5 5 5 4 3 4 4 4 3 2 3 3 2 4 3 2 4 6 5 6 5 6 5 6 4 6 3 3 5 5
7 6 6 8 9 7 6 9 8 6 8 7 8 7 8 7 7 6 5 5 5 5 5 5 5 5 6 5 5 6 5 5 5 5 5 5 5 5 5 4 4 3 3 3 1 2 3 3 5 6 6 5 5 6 5 6 7 6 4 6 4 7 7
6 8 9 9 9 8 8 5 8 9 8 8 7 7 6 6 6 6 6 6 5 5 5 5 5 4 5 5 6 6 6 5 5 6 6 6 6 6 5 5 4 3 3 3 1 2 2 3 4 5 5 4 5 5 4 6 6 6 7 8 6 4 4
6 8 10 9 10 9 6 5 8 8 8 8 7 6 7 5 6 6 6 5 4 4 3 5 6 6 5 4 4 5 5 6 5 6 5 5 6 5 5 4 4 4 3 2 2 0 1 2 3 4 5 5 4 4 5 4 5 6 8 8 8 4 3
6 8 9 10 10 8 9 10 9 8 7 8 7 6 7 7 4 5 4 5 5 4 5 4 3 4 5 5 6 6 6 6 5 5 5 4 4 9 7 1 4 4 3 4 4 4 4 3 4 3 3 5 4 5 4 5 5 6 6 6 4 5 6
7 8 9 10 10 8 6 6 6 5 7 8 7 7 6 7 6 7 6 6 4 4 5 5 4 3 3 5 6 5 5 5 5 5 5 6 8 8 4 7 3 4 4 3 4 4 5 5 3 4 2 3 4 5 4 4 4 6 5 4 5 5 4
6 6 8 8 8 8 8 6 7 7 6 7 6 7 9 9 10 9 7 7 6 5 6 5 4 3 3 4 4 5 5 5 6 6 5 5 5 5 4 0 7 4 6 8 8 6 5 4 5 5 1 3 5 6 5 4 3 3 3 5 2 2 4
7 7 7 6 6 7 5 4 7 6 6 7 8 8 8 9 10 9 9 8 7 6 5 4 7 7 5 4 5 5 4 5 6 6 7 8 7 6 5 6 7 12 11 11 11 12 12 11 9 6 4 4 6 6 6 5 4 3 4 5 5 5 5
8 9 8 5 6 4 5 7 8 8 9 9 10 9 9 10 8 8 9 9 8 5 5 4 9 8 6 8 7 5 6 4 5 6 7 8 8 7 6 5 5 7 9 9 10 12 11 12 11 12 11 9 6 6 7 6 3 2 2 2 1 2 3
8 8 7 3 6 3 9 9 10 10 10 11 9 9 11 9 8 8 8 8 8 6 5 7 7 8 6 10 9 7 6 6 6 6 7 8 7 7 7 7 6 6 6 6 6 7 8 10 10 10 11 11 12 11 6 4 3 2 2 3 2 1 1
9 7 7 4 7 3 11 11 12 12 11 10 9 11 9 9 8 7 8 10 8 5 5 6 7 7 7 10 14 11 7 7 8 6 7 7 7 6 6 7 7 6 5 9 6 5 6 7 9 10 10 10 11 10 11 11 8 3 3 2 1 1 2
9 9 7 7 9 6 7 11 10 10 10 10 12 11 10 10 7 8 7 8 8 5 5 8 7 6 7 10 14 11 7 9 8 7 7 6 6 6 5 7 7 6 4 5 4 3 4 6 5 5 5 5 4 5 6 6 6 6 3 1 1 0 2
11 10 9 11 12 10 8 9 10 7 8 10 12 11 10 9 7 7 7 6 7 7 5 8 7 6 7 9 14 11 8 8 8 8 7 6 6 5 5 6 7 6 4 4 4 3 3 2 5 5 5 4 4 4 4 4 4 3 2 0 0 2 3
9 11 7 11 12 11 9 10 10 8 10 9 8 11 10 8 8 7 6 6 8 8 6 11 9 7 9 10 10 8 7 8 8 8 7 7 6 6 6 7 7 7 5 5 7 9 7 4 4 5 6 4 5 4 6 5 6 6 5 4 3 3 3
9 11 9 11 11 12 11 11 9 7 11 9 9 10 10 9 7 7 7 7 9 7 7 11 11 9 9 13 10 8 8 8 8 9 8 7 7 7 6 6 7 7 6 6 7 8 9 6 5 5 5 4 4 4 5 6 6 6 8 6 5 6 7
7 8 10 11 10 9 9 10 8 5 11 10 10 9 9 10 9 7 9 8 7 9 8 10 12 11 12 11 11 9 8 9 8 8 7 7 6 7 8 11 7 7 8 5 8 10 10 5 5 4 4 4 5 5 5 6 6 6 7 7 6 6 5
8 7 10 8 8 11 9 9 9 7 10 10 9 7 8 10 10 9 8 8 8 10 8 10 13 13 13 11 9 8 9 9 8 7 7 7 6 6 6 8 11 9 7 6 9 10 11 8 5 4 4 6 6 6 5 5 5 7 8 8 8 9 8
9 8 8 9 8 7 7 9 10 10 9 8 8 7 7 10 11 8 7 8 9 8 10 9 12 15 14 13 10 8 7 10 9 8 6 6 6 5 5 5 6 8 8 9 9 9 9 9 6 4 5 6 5 5 4 4 3 3 3 4 5 5 5
10 10 8 8 7 9 8 9 9 10 8 8 8 9 10 9 10 9 8 8 9 9 8 9 11 14 14 13 12 9 7 8 8 8 7 6 6 6 5 5 4 6 8 9 8 8 8 7 5 5 6 5 2 2 3 3 5 5 4 4 5 6 6
10 9 8 8 11 10 8 9 7 7 7 8 10 11 9 9 10 9 8 8 8 9 10 12 9 13 15 15 14 13 8 6 5 8 8 7 6 6 4 3 3 5 7 7 6 6 6 6 6 6 5 4 2 4 4 2 2 5 6 6 6 7 7
11 9 10 10 9 9 8 8 7 7 8 9 11 11 10 10 10 9 7 7 6 7 7 9 12 11 14 15 15 15 13 9 8 6 8 7 4 3 2 3 4 6 6 7 7 8 8 9 8 5 4 5 5 5 5 6 6 7 7 6 7 7 6
10 10 11 9 9 9 8 7 7 7 7 9 9 9 7 7 8 8 8 7 6 5 5 6 10 12 12 14 14 14 13 11 9 7 6 5 3 3 4 5 4 6 8 10 11 11 11 11 9 10 9 9 8 8 7 7 7 6 6 7 7 7 6
Wind_Direction
184 176 165 141 118 141 185 164 169 188 180 180 175 174 169 166 163 154 147 138 143 160 165 165 169 160 127 112 163 231 154 165 167 160 172 171 172 203 128 84 78 110 128 93 134 156 132 143 143 82 64 14 3 298 279 269 192 194 149 96 98 90 78
140 156 151 146 147 148 188 166 178 197 193 187 181 175 173 161 161 163 157 151 160 167 167 179 167 165 158 155 165 192 163 174 176 166 156 182 175 173 129 83 108 113 86 98 129 104 135 140 99 143 163 32 21 304 292 160 151 157 148 148 128 103 95
147 146 159 166 166 156 160 207 190 196 193 191 195 181 173 165 157 162 164 158 168 164 173 176 164 168 158 159 171 163 163 164 181 167 176 177 176 162 157 145 130 112 88 91 103 111 72 65 152 163 167 158 155 237 312 341 139 135 138 127 115 119 109
164 159 166 173 164 165 165 186 197 200 187 194 193 188 175 166 159 162 162 162 166 167 169 162 170 162 158 158 154 143 153 161 171 180 167 159 151 154 157 152 155 167 167 167 171 164 148 139 120 129 151 173 172 157 220 155 146 145 136 141 146 126 115
167 172 180 182 180 178 173 180 200 199 195 189 189 176 169 164 158 164 157 156 166 160 171 165 159 154 146 141 144 149 153 163 164 167 164 154 154 162 171 162 165 164 135 141 164 156 153 155 150 150 164 164 119 201 116 108 132 146 151 155 142 126 119
174 179 183 182 183 180 177 179 180 197 182 174 186 177 174 162 159 156 163 161 160 161 159 147 156 142 138 141 145 148 149 156 170 165 165 168 161 165 179 190 161 166 183 153 142 148 131 133 141 141 181 154 144 140 122 130 152 145 151 132 133 143 127
180 180 188 184 186 184 174 178 180 184 176 179 175 182 171 157 160 165 164 165 157 155 154 148 148 146 141 146 153 156 165 169 156 163 164 151 155 163 147 157 176 183 185 155 149 139 144 139 151 154 147 137 111 144 125 75 138 119 150 101 137 134 132
69 239 201 195 185 178 175 173 178 179 171 170 172 169 154 157 162 154 160 158 160 155 147 141 144 141 149 148 163 167 164 161 159 155 156 152 155 162 164 162 163 170 174 163 153 163 156 163 156 159 151 140 106 125 155 87 168 210 171 97 150 139 144
247 231 255 234 225 165 156 119 59 229 163 160 156 149 155 153 156 154 156 158 155 152 153 149 150 147 151 150 155 158 162 161 151 160 166 161 163 168 167 132 139 183 166 163 169 161 169 162 154 157 162 157 150 159 155 150 182 238 154 124 97 130 138
223 226 230 242 71 35 37 92 133 278 248 147 153 145 140 143 145 147 146 146 149 151 148 152 151 148 147 149 154 153 158 153 146 165 153 157 162 154 147 165 176 164 164 159 158 159 160 155 160 160 169 173 168 147 161 172 207 181 201 144 146 188 135
190 193 139 45 76 121 203 10 91 177 272 202 139 135 130 132 136 140 138 145 147 146 149 152 150 149 141 149 157 161 159 152 152 142 168 156 151 147 158 168 145 146 161 165 179 160 151 162 156 166 173 144 145 162 160 168 191 201 152 223 136 155 143
184 159 130 124 148 156 149 152 210 211 213 236 124 127 127 124 127 134 137 141 140 144 149 153 150 150 148 146 157 153 150 151 151 161 179 155 147 146 157 167 144 160 170 183 171 138 118 143 165 162 157 145 146 131 132 115 133 255 158 186 218 122 140
166 162 154 157 153 146 130 154 177 218 224 174 134 133 135 133 132 131 138 140 137 143 153 150 150 152 149 158 158 150 160 152 154 164 177 162 145 150 149 157 175 181 181 165 143 128 127 124 136 135 141 166 172 162 143 142 145 182 222 171 171 130 146
160 163 158 150 137 153 147 159 181 208 208 143 137 133 135 139 134 134 138 139 140 147 148 145 152 148 153 158 169 157 155 158 160 168 154 162 148 144 153 158 181 198 160 145 149 169 159 151 153 155 151 156 183 172 155 145 140 130 19 72 126 157 145
151 161 158 146 142 163 164 169 182 219 170 142 139 136 136 138 135 135 138 136 138 148 150 148 154 145 151 158 165 158 156 158 160 161 158 162 165 159 149 163 188 200 177 151 153 151 125 208 156 165 191 184 183 179 193 135 146 145 168 88 81 89 145
166 172 161 145 154 171 159 151 198 196 142 142 139 140 141 141 145 141 132 134 143 152 153 150 156 151 156 159 157 160 157 160 158 158 163 167 169 157 155 172 189 182 131 131 158 180 191 190 174 190 201 201 198 177 186 171 133 140 160 185 166 157 179
169 169 159 155 155 157 161 151 223 173 139 138 145 146 147 149 145 146 140 140 153 151 142 151 158 152 157 156 159 162 167 162 164 162 163 166 166 166 174 170 194 167 130 156 190 202 224 197 187 197 204 191 188 168 181 163 158 137 155 145 206 183 186
176 155 155 158 144 153 158 145 214 150 140 143 147 149 148 143 142 147 150 153 148 148 161 152 137 152 165 166 157 156 157 156 162 168 164 168 172 173 174 181 173 138 136 141 188 259 278 251 218 187 172 170 167 162 153 151 155 143 145 175 179 214 183
172 150 147 144 140 147 143 183 202 146 146 145 147 147 148 148 149 155 159 155 139 140 144 137 152 164 156 142 131 130 135 137 152 157 159 166 169 176 173 159 148 132 129 151 191 245 193 175 150 164 152 160 157 148 138 138 144 150 158 171 164 172 188
157 149 139 135 146 154 159 196 174 145 148 139 143 143 149 153 139 116 84 79 84 97 89 76 77 119 143 149 139 134 142 138 133 142 152 140 76 37 358 135 124 122 147 150 149 149 127 86 89 91 125 141 146 128 134 147 142 144 154 157 184 187 178
150 144 139 141 153 152 154 208 152 135 137 139 142 143 127 101 91 94 90 85 68 73 81 68 53 63 119 144 137 143 147 133 126 114 117 111 118 139 136 289 99 95 114 147 137 133 110 99 77 73 30 109 117 109 117 122 131 148 144 160 173 183 187
125 134 139 143 155 155 158 193 135 142 140 133 115 104 112 112 102 93 81 83 72 58 65 48 26 13 67 111 130 144 148 133 124 116 118 108 100 96 112 214 64 62 67 59 58 79 94 120 124 102 55 111 100 100 90 82 107 122 128 134 128 115 144
125 132 141 146 143 125 182 158 118 98 91 95 101 103 100 102 104 105 101 82 72 60 53 45 11 355 326 128 120 122 123 133 129 126 114 95 87 96 105 88 87 84 73 65 58 56 59 63 65 90 129 108 103 96 107 109 103 117 128 143 170 158 146
137 149 150 144 130 162 154 110 100 93 95 97 100 103 102 97 94 95 95 93 75 60 53 29 0 7 3 104 108 113 120 116 116 112 107 110 111 108 100 93 87 80 80 74 68 62 51 44 56 71 66 69 88 120 113 89 100 146 115 128 150 127 158
121 133 135 158 90 240 119 108 98 101 101 99 99 96 93 92 94 96 92 83 79 66 60 16 1 16 27 82 99 103 105 105 104 107 113 114 118 113 103 91 77 74 79 93 100 82 71 63 48 50 60 59 54 51 65 131 154 107 129 124 117 179 160
117 114 123 124 113 220 110 106 108 105 104 106 98 91 91 89 84 79 89 89 79 63 60 11 14 27 43 85 96 99 93 100 100 102 106 109 111 110 105 96 83 57 49 53 65 83 92 88 90 84 76 67 52 48 45 40 39 103 154 107 144 245 210
109 108 109 109 97 64 81 98 101 107 113 107 99 95 88 86 84 78 75 85 83 60 50 3 14 38 62 94 98 95 96 94 95 94 97 100 101 101 97 100 96 78 37 36 31 32 79 99 93 93 69 65 66 59 60 69 70 49 51 121 143 296 283
108 105 119 117 107 101 86 88 90 95 99 102 107 105 102 93 82 80 75 81 80 61 29 5 15 45 70 100 101 98 96 93 88 80 70 67 67 69 74 80 80 81 64 51 31 4 26 53 115 106 89 63 64 55 62 38 15 1 350 43 192 221 251
104 106 113 112 106 102 95 91 90 88 88 84 85 97 89 87 88 83 75 76 77 59 27 15 23 40 75 93 86 86 89 88 88 81 71 64 68 69 76 86 90 77 68 48 12 19 30 358 48 64 64 60 50 48 45 27 7 9 356 334 307 285 266
92 102 104 98 105 111 107 97 89 96 90 83 85 81 91 89 84 85 79 70 76 65 41 15 22 40 71 100 96 92 87 81 74 73 64 54 55 60 67 83 87 88 66 46 2 33 33 54 55 50 52 53 59 66 32 2 355 7 1 344 306 285 281
62 81 95 104 102 96 99 100 83 82 96 95 82 83 90 86 78 73 75 70 69 77 53 26 34 45 61 86 107 106 100 95 87 85 79 64 64 62 51 57 80 91 79 52 12 35 32 53 71 58 55 51 44 42 21 360 352 349 349 344 349 340 301
25 54 75 68 88 96 85 91 100 88 91 88 86 88 86 88 82 68 67 76 64 72 66 40 37 50 55 68 96 110 108 102 96 91 93 83 69 68 57 45 46 52 73 64 44 39 36 44 69 50 54 57 46 39 4 347 357 356 355 358 357 357 358
30 38 60 70 62 77 102 95 90 85 77 88 93 87 81 82 81 69 61 63 59 56 62 50 37 46 53 54 74 101 109 112 112 109 99 102 99 81 72 60 49 51 57 61 59 51 49 56 69 50 61 68 46 24 345 337 1 359 347 0 348 359 4
31 37 39 65 68 57 56 77 88 90 95 94 94 85 83 83 80 72 60 58 64 54 55 62 45 49 53 55 57 83 92 99 110 109 105 92 82 82 66 54 51 37 50 53 51 43 38 41 50 66 60 67 74 271 295 0 0 357 27 30 32 29 22
37 39 36 44 65 60 53 60 66 92 103 100 95 91 86 85 84 77 62 54 56 57 54 54 63 46 54 60 58 60 79 71 89 108 96 87 76 69 69 77 59 25 37 42 46 43 35 35 44 67 75 99 89 31 38 31 10 46 50 41 40 36 23
38 34 38 33 49 63 61 66 68 76 86 89 91 93 91 92 90 83 73 58 50 51 49 50 50 57 52 60 64 65 68 74 68 78 96 94 91 98 71 45 47 38 47 54 55 54 52 50 58 68 80 41 39 56 68 55 49 49 44 38 41 38 26
36 40 41 39 46 51 51 61 66 71 85 93 99 95 88 94 95 89 83 68 50 42 40 56 49 52 57 57 60 63 66 67 72 81 79 91 81 64 47 32 25 31 58 60 68 68 61 66 77 75 73 74 74 65 61 55 50 50 51 41 35 25 18